FW6924 Weather Reports


Display with metric or nautical units.
time (UTC)temp
F
wind
direction
speed
MPH
gust
MPH
rain 1hr
in
rain 24hr
in
rain mn
in
humidity
%
barometer
mb
20260902051000 76 355 2.0 4.0 0.00 0.05 0.00 94 1013.9
20260902050008 76 5 1.0 5.0 0.00 0.05 0.00 94 1014.0
20260902045002 76 348 2.0 5.0 0.00 0.05 0.00 94 1014.0
20260902044004 76 360 1.0 3.0 0.00 0.05 0.00 94 1014.1
20260902043002 76 347 2.0 4.0 0.00 0.05 0.00 94 1014.1
20260902042004 76 360 1.0 4.0 0.00 0.05 0.00 94 1014.2
20260902041002 76 355 1.0 4.0 0.00 0.05 0.00 94 1014.2
20260902040008 76 17 0.0 0.0 0.00 0.05 0.00 94 1014.2
20260902034004 76 319 0.0 0.0 0.00 0.05 0.05 93 1014.3
20260902033002 76 347 0.0 0.0 0.00 0.05 0.05 93 1014.4
20260902032004 77 99 0.0 0.0 0.00 0.05 0.05 93 1014.4
20260902031002 77 99 0.0 0.0 0.00 0.05 0.05 93 1014.6
20260902030006 77 99 0.0 0.0 0.00 0.05 0.05 93 1014.7
20260902025002 77 99 0.0 0.0 0.00 0.05 0.05 93 1014.7
20260902024004 77 99 0.0 0.0 0.00 0.05 0.05 93 1014.6
20260902023002 77 99 0.0 0.0 0.00 0.05 0.05 93 1014.6
20260902022004 77 99 0.0 0.0 0.00 0.05 0.05 93 1014.6
20260902020007 77 99 0.0 0.0 0.00 0.05 0.05 93 1014.4
20260902014004 77 99 0.0 0.0 0.00 0.05 0.05 93 1014.3
20260902013002 77 99 0.0 0.0 0.00 0.05 0.05 92 1014.3
20260902012004 78 99 0.0 0.0 0.00 0.05 0.05 92 1014.2
20260902011002 78 99 0.0 0.0 0.00 0.05 0.05 93 1014.2
20260902010006 78 99 0.0 0.0 0.00 0.05 0.05 92 1014.2
20260902005002 78 99 0.0 0.0 0.00 0.08 0.05 92 1014.2
20260902004002 78 99 0.0 0.0 0.00 0.08 0.05 92 1014.2
20260902003002 78 99 0.0 0.0 0.01 0.08 0.05 92 1014.2
20260902002002 78 99 0.0 0.0 0.02 0.08 0.05 92 1014.4
20260902001002 78 99 0.0 0.0 0.02 0.08 0.05 92 1014.4
20260902000005 78 99 0.0 0.0 0.02 0.08 0.05 92 1014.2
20260901235004 78 99 1.0 3.0 0.03 0.09 0.05 92 1014.3
20260901234002 78 94 2.0 4.0 0.03 0.09 0.05 91 1014.3
20260901233004 79 105 0.0 6.0 0.03 0.08 0.04 90 1014.3
20260901232002 79 124 0.0 0.0 0.02 0.07 0.03 90 1014.3
20260901230005 79 116 1.0 4.0 0.01 0.06 0.02 89 1014.2
20260901225002 80 104 0.0 4.0 0.01 0.08 0.02 88 1013.8
20260901224002 80 96 0.0 1.0 0.00 0.07 0.01 88 1013.6
20260901223002 81 98 0.0 4.0 0.00 0.07 0.01 86 1013.3
20260901222002 81 69 0.0 3.0 0.00 0.07 0.01 85 1013.4
20260901221002 81 65 0.0 4.0 0.00 0.07 0.01 84 1013.7
20260901214003 81 105 1.0 4.0 0.00 0.08 0.01 82 1013.8
20260901213001 81 85 0.0 1.0 0.00 0.08 0.01 83 1013.6
20260901212004 81 73 0.0 3.0 0.00 0.08 0.01 82 1013.6
20260901210024 81 42 1.0 6.0 0.00 0.08 0.01 81 1013.5
20260901205001 82 266 2.0 6.0 0.00 0.08 0.01 79 1013.3
20260901203001 82 344 4.0 13.0 0.00 0.08 0.01 80 1012.6
20260901201001 83 333 5.0 13.0 0.00 0.08 0.01 77 1012.8
20260901200004 87 62 5.0 14.0 0.00 0.08 0.01 76 1013.1
20260901194001 86 109 6.0 12.0 0.00 0.08 0.01 75 1012.9
20260901193003 86 119 7.0 14.0 0.00 0.08 0.01 75 1012.9
20260901192001 87 106 9.0 17.0 0.00 0.08 0.01 72 1013.2
20260901191003 93 106 2.0 12.0 0.00 0.08 0.01 65 1013.3
20260901185001 92 228 2.0 6.0 0.00 0.08 0.01 65 1013.2
20260901184001 92 275 3.0 8.0 0.00 0.08 0.01 60 1013.5
20260901183000 92 67 2.0 6.0 0.00 0.08 0.01 64 1013.6
20260901182003 92 304 2.0 5.0 0.00 0.08 0.01 63 1013.8
20260901181000 92 24 2.0 5.0 0.00 0.08 0.01 66 1013.9
20260901180005 91 344 2.0 8.0 0.00 0.08 0.01 63 1014.0
20260901175001 91 334 2.0 9.0 0.00 0.08 0.01 66 1013.9
20260901173000 91 67 2.0 9.0 0.00 0.08 0.01 69 1014.2
20260901171001 90 120 1.0 4.0 0.00 0.08 0.01 69 1014.4
20260901170005 89 342 2.0 8.0 0.00 0.08 0.01 71 1014.5
20260901165001 90 15 2.0 8.0 0.00 0.08 0.01 71 1014.6
20260901164003 89 322 2.0 8.0 0.00 0.08 0.01 69 1014.7
20260901163001 88 349 1.0 4.0 0.00 0.08 0.01 71 1014.9
20260901162003 88 315 1.0 5.0 0.00 0.08 0.01 73 1015.0
20260901161000 88 292 1.0 4.0 0.00 0.08 0.01 74 1015.1
20260901160005 88 346 2.0 5.0 0.00 0.08 0.01 73 1015.3
20260901155000 88 13 2.0 5.0 0.00 0.08 0.01 75 1015.4
20260901152002 86 341 1.0 8.0 0.00 0.08 0.01 78 1015.3
20260901151000 86 59 1.0 5.0 0.00 0.08 0.01 79 1015.2
20260901145001 86 344 2.0 4.0 0.00 0.08 0.01 79 1015.0
20260901144003 86 103 1.0 6.0 0.00 0.08 0.01 81 1015.1
20260901143000 85 65 1.0 3.0 0.00 0.08 0.01 83 1014.9
20260901142002 84 85 1.0 4.0 0.00 0.08 0.01 85 1015.0
20260901140005 83 109 1.0 7.0 0.00 0.08 0.01 87 1015.0
20260901135000 82 82 1.0 3.0 0.00 0.08 0.01 89 1014.9
20260901133001 81 67 2.0 6.0 0.00 0.08 0.01 92 1014.8
20260901132002 80 59 1.0 5.0 0.00 0.08 0.01 94 1014.8
20260901131000 79 94 1.0 4.0 0.00 0.08 0.01 95 1014.6
20260901125000 78 93 1.0 5.0 0.00 0.08 0.01 96 1014.4
20260901124002 77 98 1.0 3.0 0.00 0.08 0.01 96 1014.4
20260901122002 76 65 0.0 1.0 0.00 0.08 0.01 96 1014.3
20260901120023 76 65 0.0 0.0 0.00 0.08 0.01 96 1014.3
20260901115000 75 65 0.0 0.0 0.00 0.08 0.01 96 1014.2
20260901113000 75 66 0.0 0.0 0.00 0.08 0.01 96 1014.1
20260901112000 74 66 0.0 0.0 0.00 0.08 0.01 95 1014.0
20260901111000 74 66 0.0 0.0 0.00 0.08 0.01 95 1013.9
20260901104000 74 67 0.0 0.0 0.01 0.08 0.01 96 1014.0
20260901103002 74 67 0.0 0.0 0.01 0.08 0.01 95 1014.0
20260901102000 74 67 0.0 0.0 0.01 0.08 0.01 95 1013.9
20260901100003 74 67 0.0 0.0 0.01 0.08 0.01 95 1013.8
20260901094002 74 67 0.0 0.0 0.00 0.07 0.00 95 1013.6
20260901092002 75 67 0.0 0.0 0.00 0.07 0.00 95 1013.7
20260901091000 75 67 0.0 0.0 0.00 0.07 0.00 95 1013.7
20260901090005 75 67 0.0 0.0 0.00 0.07 0.00 95 1013.7
20260901085000 75 67 0.0 0.0 0.00 0.07 0.00 95 1013.7
20260901084002 75 67 0.0 0.0 0.00 0.07 0.00 95 1013.6
20260901083000 75 67 0.0 0.0 0.00 0.07 0.00 95 1013.6
20260901082002 75 67 0.0 0.0 0.00 0.07 0.00 95 1013.6
20260901081000 75 67 0.0 0.0 0.00 0.07 0.00 95 1013.5
20260901080005 75 67 0.0 0.0 0.00 0.07 0.00 95 1013.6
20260901075000 75 67 0.0 0.0 0.00 0.07 0.00 95 1013.7
20260901074000 75 69 0.0 0.0 0.00 0.07 0.00 95 1013.6
20260901072000 75 71 0.0 0.0 0.00 0.07 0.00 95 1013.7
20260901071000 75 71 0.0 0.0 0.00 0.07 0.00 95 1013.7
20260901070002 75 71 0.0 0.0 0.00 0.07 0.00 95 1013.8
20260901063959 75 71 0.0 0.0 0.00 0.07 0.00 95 1014.0
20260901063002 75 71 0.0 1.0 0.00 0.07 0.00 95 1014.0
20260901062000 75 71 0.0 0.0 0.00 0.07 0.00 95 1014.1
20260901061002 75 71 0.0 0.0 0.00 0.07 0.00 95 1014.0
20260901060002 75 71 0.0 1.0 0.00 0.07 0.00 95 1014.2
20260901054959 75 71 0.0 2.0 0.00 0.07 0.00 95 1014.3
20260901053959 75 72 0.0 1.0 0.00 0.07 0.00 95 1014.4
20260901052959 75 72 0.0 0.0 0.00 0.07 0.00 95 1014.6